Retour au catalogue

GLOBALSTAR M062

ActifCommunicationsLEO
NORAD 26082·PAYLOAD·🇺🇸 United States

Lancé Feb 8, 2000 depuis Cape Canaveral Space Force Station

Loading…

Prochains Passages (prochaines 24 heures)

TLE

FraisSource: Space-Track

Époque: Sep 13, 2026, 20:48 UTC

1 26082U 00008B   26256.86679001 -.00000083  00000-0  10989-3 0  9996
2 26082  51.9834 201.6083 0007571   5.7152  27.8002 12.43500635553067

Suivez GLOBALSTAR M062 en temps réel avec AllMySat

Download on the App Store